Regional Weather Roundup
Issued by NWS

Home | Current Version | Previous Version | Graphics & Text | Print | Product List | Glossary On
Versions: 1 2 3 4 5 6 7 8 9 10 11 12 13 14 15 16 17 18 19 20 21 22 23 24 25 26 27 28 29 30 31 32 33 34 35 36 37 38 39 40 41 42 43 44 45 46 47 48 49 50
000
ASUS44 KMEG 021700
RWRTN
TENNESSEE HOURLY STATE WEATHER ROUNDUP
NATIONAL WEATHER SERVICE MEMPHIS TN
1100 AM CST MON MAR 02 2015

TNZ002-004-019-021-049-052-054-088>092-021800-
WEST TENNESSEE

CITY           SKY/WX    TMP DP  RH WIND       PRES   REMARKS
MEMPHIS INTL   CLOUDY    39  29  67 NE10      30.44S WCI  32
NWS MEMPHIS      N/A     38 N/A N/A MISG        N/A
JACKSON        SUNNY     40  28  62 E12       30.44F WCI  33
DYERSBURG      CLOUDY    36  16  44 NE9       30.49F WCI  29
UNION CITY     SUNNY     34  25  69 E10       30.48F WCI  26
PARIS          SUNNY     36  21  55 E10       30.48F WCI  28
LEXINGTON      SUNNY     39  27  60 NE12      30.43F WCI  32
SAVANNAH       CLOUDY    39  34  81 NE10      30.43F WCI  32
$$

TNZ008-025-027-028-033-062-065-066-021800-
NORTH MIDDLE TENNESSEE

CITY           SKY/WX    TMP DP  RH WIND       PRES   REMARKS
NASHVILLE      PTSUNNY   41  30  65 NE9G18    30.48F
CLARKSVILLE    SUNNY     36  24  62 E10       30.50F WCI  28
COOKEVILLE     CLOUDY    36  34  93 NE6       30.44S WCI  31
CROSSVILLE     CLOUDY    33  30  88 NE9       30.41S WCI  25
$$

TNZ061-075-076-078-094-096-097-021800-
SOUTH MIDDLE TENNESSEE

CITY           SKY/WX    TMP DP  RH WIND       PRES   REMARKS
FAYETTEVILLE   CLOUDY    36  34  93 NE10        N/A  WCI  28
TULLAHOMA      CLOUDY    37  34  87 NE9       30.42F WCI  31
WINCHESTER     CLOUDY    39  37  93 N7        30.42F WCI  34
COLUMBIA       CLOUDY    39  39 100 NE12      30.43F WCI  32
SHELBYVILLE    CLOUDY    37  34  87 NE9       30.45F WCI  31
$$

TNZ017-018-042-046-047-021800-
NORTHEAST TENNESSEE

CITY           SKY/WX    TMP DP  RH WIND       PRES   REMARKS
TRI CITIES     PTSUNNY   43  35  73 VRB3      30.39S
ELIZABETHTON   CLOUDY    37  32  81 CALM      30.38S
$$

TNZ012-013-036-069-073-074-021800-
CENTRAL EAST TENNESSEE

CITY           SKY/WX    TMP DP  RH WIND       PRES   REMARKS
KNOXVILLE      CLOUDY    41  36  82 N12       30.42F
OAK RIDGE      PTSUNNY   42  33  70 NE8       30.45S
GATLINBURG     CLOUDY    39  37  93 NE5       30.41F
$$

TNZ083-085-099-021800-
SOUTHEAST TENNESSEE

CITY           SKY/WX    TMP DP  RH WIND       PRES   REMARKS
CHATTANOOGA    CLOUDY    47  39  74 N13       30.41S
$$

SKY/WX REPORTED AS FAIR MEANS FEW OR NO CLOUDS BELOW
12 THOUSAND FEET.



USA.gov is the U.S. government's official web portal to all federal, state and local government web resources and services.